Weather History for KSAC - May, 2012

Change the Weather History Date:

Wednesday, May 2, 2012

  Actual Average Record
Temperature  
Mean Temperature 59 °F -  
Max Temperature 71 °F 76 °F 93 °F (1966)
Min Temperature 47 °F 49 °F 37 °F (1964)
Degree Days  
Heating Degree Days 6    
Month to date heating degree days 10  
Cooling Degree Days 0    
Month to date cooling degree days 0  
Year to date cooling degree days 37  
Growing Degree Days 8 (Base 50)    
Moisture  
Dew Point 43 °F    
Average Humidity 60    
Maximum Humidity 86    
Minimum Humidity 33    
Precipitation  
Precipitation 0.00 in 0.03 in 0.44 in (1971)
Month to date precipitation 0.00 0.06  
Year to date precipitation 9.83 11.07  
Since 1 July precipitation 12.18  
Sea Level Pressure  
Sea Level Pressure 29.89 in    
Wind  
Wind Speed 7 mph (SSW)    
Max Wind Speed 18 mph    
Max Gust Speed 25 mph    
Visibility 10 miles    
Events      
T = Trace of Precipitation, MM = Missing Value Source: NWS Daily Summary

Daily Weather History Graph

Daily Weather History Graph

Search for Another Location

Airport or City:

Trip Planner

Search our weather history database for the weather conditions in past years. The results will help you decide how hot, cold, wet, or windy it might be!

Date:

Astronomy

May. 02, 2012 Rise Set
Actual Time 6:07 AM PDT 7:59 PM PDT
Civil Twilight 5:38 AM PDT 8:28 PM PDT
Nautical Twilight 5:03 AM PDT 9:03 PM PDT
Astronomical Twilight 4:26 AM PDT 9:40 PM PDT
Moon 4:20 PM PDT (5/2) 3:37 AM PDT (5/2)
Length of Visible Light 14h 49m
Length of Day
13h 52m
Waxing Gibbous, 84% of the Moon is Illuminated
May 2
Waxing Gibbous
May 5
Full
May 12
Last Quarter
May 20
New
May 28
First Quarter

Hourly Weather History & Observations

Time (PDT) Temp. Dew Point Humidity Pressure Visibility Wind Dir Wind Speed Gust Speed Precip Events Conditions
12:53 AM 52.0 °F 44.1 °F 74% 29.85 in 10.0 mi SSE 4.6 mph - N/A   Clear
1:53 AM 51.1 °F 44.1 °F 77% 29.86 in 10.0 mi SSE 4.6 mph - N/A   Clear
2:53 AM 50.0 °F 44.1 °F 80% 29.86 in 10.0 mi Calm Calm - N/A   Clear
3:53 AM 48.9 °F 44.1 °F 83% 29.86 in 10.0 mi SE 3.5 mph - N/A   Clear
4:53 AM 48.0 °F 43.0 °F 83% 29.86 in 10.0 mi SE 4.6 mph - N/A   Clear
5:53 AM 46.9 °F 43.0 °F 86% 29.88 in 10.0 mi SSE 4.6 mph - N/A   Clear
6:53 AM 48.9 °F 43.0 °F 80% 29.90 in 10.0 mi South 4.6 mph - N/A   Clear
7:53 AM 50.0 °F 43.0 °F 77% 29.91 in 10.0 mi South 4.6 mph - N/A   Clear
8:53 AM 53.1 °F 45.0 °F 74% 29.93 in 10.0 mi SW 6.9 mph - N/A   Clear
9:53 AM 57.9 °F 46.0 °F 65% 29.94 in 10.0 mi WSW 6.9 mph - N/A   Clear
10:53 AM 61.0 °F 45.0 °F 56% 29.93 in 10.0 mi Variable 3.5 mph - N/A   Clear
11:53 AM 66.0 °F 46.9 °F 50% 29.93 in 10.0 mi WSW 5.8 mph - N/A   Clear
12:53 PM 69.1 °F 48.0 °F 47% 29.91 in 10.0 mi SW 8.1 mph - N/A   Clear
1:53 PM 69.1 °F 46.9 °F 45% 29.90 in 10.0 mi SSW 9.2 mph - N/A   Clear
2:53 PM 69.1 °F 46.0 °F 44% 29.89 in 10.0 mi South 10.4 mph - N/A   Clear
3:53 PM 69.1 °F 39.9 °F 35% 29.88 in 10.0 mi SSW 16.1 mph 25.3 mph N/A   Clear
4:53 PM 66.0 °F 44.1 °F 45% 29.88 in 10.0 mi SW 17.3 mph 25.3 mph N/A   Clear
5:53 PM 64.4 °F 42.8 °F 45% 29.88 in 10.0 mi SW 12.7 mph 25.3 mph N/A   Clear
6:53 PM 61.0 °F 42.1 °F 50% 29.87 in 10.0 mi SW 13.8 mph 27.6 mph N/A   Clear
7:53 PM 57.9 °F 41.0 °F 53% 29.89 in 10.0 mi SSW 11.5 mph 20.7 mph N/A   Clear
8:53 PM 55.9 °F 39.9 °F 55% 29.90 in 10.0 mi SSW 10.4 mph 17.3 mph N/A   Clear
9:53 PM 53.1 °F 39.0 °F 59% 29.90 in 10.0 mi SSW 15.0 mph 24.2 mph N/A   Clear
10:53 PM 51.1 °F 39.9 °F 66% 29.92 in 10.0 mi SSW 13.8 mph 19.6 mph N/A   Clear
11:53 PM 50.0 °F 42.1 °F 74% 29.91 in 10.0 mi SSW 12.7 mph 23.0 mph N/A   Clear